CZ-6A DEB, 56602

Orbit data source: Space-Track

CZ-6A DEB, 56602 is space debris in SSO originally from a launch on Fri, 11 Nov 2022 UTC launched from the Taiyaun Space Center, China (TSC). Debris objects in space refer to the collection of defunct objects orbiting the Earth. Examples of debris include non-operational satellites, rocket bodies, and fragments generated from explosions, collisions, or faulty payload assembly.

Loading next visibility...
Identifier
56602, 2022-151AEA
Orbit
SSO
Country
Flag of CNCN / PRC
Related business
Manufacturer
SAST
Mission
Spacecraft
Bus & Motor
Unknown
Mass
Unknown
Launch date (UTC)
2022-11-11 (4 years ago)
Launch vehicle
Unknown
Launch site
Taiyaun Space Center, China (TSC)
Object type
Payload
Rocket body
Debris
Shape & HBR
Unknown shape, 0.1 m
Radar Cross Section
Small (<0.1 m²)

Expand to show TLE details & history
Last TLE update: 1 day ago

TLE from 1 day ago
0 CZ-6A DEB
1 56602U 22151AEA 26235.77307258  .00004929  00000-0  17365-2 0  9995
2 56602  98.7825 258.1757 0032106  56.6204 303.8046 14.34970911181665
Epoch: 2026-08-23T18:33Z
TLE epoch observation values (Epoch: 2026-08-23T18:33:13.470Z)
Latitude
-0.00002°
Longitude
7.80526°
Altitude
765.367 km
Speed
7.478 km/s
True Right ascension
17h 12m 42s
True Declination
0° 00' 00"
Sunlit
Object was in daylight at epoch
Visualization orbit readout
Latitude
Unknown
Longitude
Unknown
Altitude
Unknown
Speed
Unknown
Apparent Right ascension
Unknown
Apparent Declination
Unknown
Sunlit
N/A
Visualization observer readout
Local Sidereal Time
14:13:04
Azimuth
Unknown
Elevation
Unknown
Doppler factor
Unknown
Orbital elements
Apogee altitude
795.262 km
Perigee altitude
749.348 km
Semi-major axis
7,150.442 km
Eccentricity
0.00321
Inclination
98.7825°
RAAN
258.1757°
Arg. of periapsis
56.6204°
True anomaly
303.49821°
Mean anomaly
303.8046°
Eccentric anomaly
303.65147°
Mean motion
3.58958 °/min
Orbital period
100.29 mins
BSTAR
0.0017365
Loading maneuver chart data...
Computing Atmospheric mass density...
Loading historical data...
Loading historical data...
Loading historical data...
Loading historical data...
Loading historical data...
Loading historical data...
Loading historical data...

Documentation

Showing up to 5 results
|